Location: Dehesa de la Cepeda
(40.6574°N, 4.3013°W)
Time: 10:31:39
(UTC+00:00)

Transit 2A Rocket - Pass Details

Date: 04 August 2021
Orbit: 586 x 917 km, 66.7° (Epoch: 24 September)

Event Time Altitude Azimuth Distance (km) Brightness Sun altitude
Rises 20:21:30 0° 344° (NNW) 3,250 9.1 -9.6°
Reaches altitude 10° 20:25:21 10° 12° (NNE) 2,399 7.8 -10.2°
Maximum altitude 20:27:50 13° 39° (NE) 2,239 7.4 -10.6°
Drops below altitude 10° 20:30:24 10° 66° (ENE) 2,486 7.3 -11.0°
Enters shadow 20:32:31 - 82° (E) 2,935 7.6 -11.4°
Sets 20:34:32 0° 93° (E) 3,480 - -11.7°
